START_TIME,STEP,MOV.,M15,t_acc.,M20,t_acc.
1979-07-23 15:00:43.450 ,1,0,0.,24.0,0.,24.0
1979-07-23 15:01:07.450 ,2,1,0.,24.0,0.,24.0
1979-07-23 15:01:31.450 ,2,0,0.,24.0,0.,24.0
1979-07-23 15:01:55.450 ,3,1,0.,24.0,0.,24.0
1979-07-23 15:02:19.450 ,3,0,0.,24.0,0.,24.0
1979-07-23 15:02:43.450 ,4,1,0.,24.0,0.,24.0
1979-07-23 15:03:07.450 ,4,0,0.,24.0,0.,24.0
1979-07-23 15:03:31.450 ,5,1,0.,24.0,0.,24.0
1979-07-23 15:03:55.450 ,5,0,0.,24.0,0.,24.0
1979-07-23 15:04:19.450 ,6,1,0.,24.0,0.,24.0
1979-07-23 15:04:43.450 ,6,0,0.,24.0,0.,24.0
1979-07-23 15:05:07.450 ,7,1,1.,24.0,0.,24.0
1979-07-23 15:05:31.450 ,7,0,0.,24.0,0.,24.0
1979-07-23 15:05:55.450 ,7,1,0.,24.0,0.,24.0
1979-07-23 15:06:19.450 ,7,0,0.,24.0,0.,24.0
1979-07-23 15:06:43.450 ,6,1,0.,24.0,0.,24.0
1979-07-23 15:07:07.450 ,6,0,0.,24.0,0.,24.0
1979-07-23 15:07:31.450 ,5,1,0.,24.0,0.,24.0
1979-07-23 15:07:55.450 ,5,0,0.,24.0,0.,24.0
1979-07-23 15:08:19.450 ,4,1,0.,24.0,0.,24.0
1979-07-23 15:08:43.450 ,4,0,0.,24.0,0.,24.0
1979-07-23 15:09:07.440 ,3,1,0.,24.0,0.,24.0
1979-07-23 15:09:31.440 ,3,0,0.,24.0,0.,24.0
1979-07-23 15:09:55.440 ,2,1,0.,24.0,0.,24.0
1979-07-23 15:10:19.440 ,2,0,0.,24.0,0.,24.0
1979-07-23 15:10:43.440 ,1,1,0.,24.0,0.,24.0
1979-07-23 15:11:07.440 ,1,0,0.,24.0,0.,24.0
1979-07-23 15:11:31.440 ,0,1,0.,24.0,0.,24.0
1979-07-23 15:11:55.440 ,0,0,0.,24.0,0.,24.0
1979-07-23 15:12:19.440 ,0,1,0.,24.0,0.,24.0
1979-07-23 15:12:43.440 ,0,0,0.,24.0,0.,24.0
1979-07-23 15:13:07.440 ,1,1,0.,24.0,0.,24.0
1979-07-23 15:13:31.440 ,1,0,0.,24.0,0.,24.0
1979-07-23 15:13:55.440 ,0,0,0.,24.0,0.,24.0
1979-07-23 15:14:19.440 ,0,0,0.,24.0,0.,24.0
1979-07-23 15:14:43.440 ,7,0,0.,24.0,0.,24.0
1979-07-23 15:15:07.440 ,7,0,0.,24.0,0.,24.0
1979-07-23 15:15:31.440 ,7,0,0.,24.0,0.,24.0
1979-07-23 15:15:55.440 ,7,0,0.,24.0,0.,24.0
1979-07-23 15:16:19.440 ,7,0,0.,24.0,0.,24.0
1979-07-23 15:16:43.440 ,7,0,0.,24.0,0.,24.0
1979-07-23 15:17:07.440 ,7,0,0.,24.0,0.,24.0
1979-07-23 15:17:31.440 ,7,0,0.,24.0,0.,24.0
1979-07-23 15:17:55.440 ,7,0,0.,24.0,0.,24.0
1979-07-23 15:18:19.440 ,7,0,0.,24.0,0.,24.0
1979-07-23 15:18:43.440 ,7,0,0.,24.0,0.,24.0
1979-07-23 15:19:07.440 ,7,0,0.,24.0,0.,24.0
1979-07-23 15:19:31.440 ,7,0,0.,24.0,0.,24.0
1979-07-23 15:19:55.440 ,7,0,0.,24.0,0.,24.0
1979-07-23 15:20:19.440 ,7,0,0.,24.0,0.,24.0
1979-07-23 15:20:43.440 ,7,0,0.,24.0,0.,24.0
1979-07-23 15:21:07.440 ,7,0,0.,24.0,0.,24.0
1979-07-23 15:21:31.440 ,7,0,0.,24.0,0.,24.0
1979-07-23 15:21:55.440 ,7,0,0.,24.0,0.,24.0
1979-07-23 15:22:19.440 ,7,0,0.,24.0,0.,24.0
1979-07-23 15:22:43.440 ,7,0,0.,24.0,0.,24.0
1979-07-23 15:23:07.440 ,7,0,0.,24.0,0.,24.0
1979-07-23 15:23:31.440 ,7,0,0.,24.0,0.,24.0
